EHI
0 0 0 0 0 0 0 0 0 0 0 0 0 0 0 0 0 0 0 0 2 5 6 7 7 5 5 7 9 9 7 6 6 6 4 2 2 3 3 3 3 4 4 4 3 2 1 0 0
0 0 0 0 0 0 0 0 0 0 0 0 0 0 0 0 0 0 0 0 2 4 5 6 7 6 5 7 9 9 8 7 7 6 4 3 3 3 3 3 3 3 4 3 3 2 1 0 0
0 0 0 0 0 0 0 0 0 0 0 0 0 0 0 0 0 0 0 1 2 4 4 5 6 6 6 7 9 9 8 8 9 8 6 4 3 3 2 3 3 3 2 2 3 2 1 0 0
0 0 0 0 0 0 0 0 0 0 0 0 0 0 0 0 0 0 0 1 2 3 3 4 6 6 6 6 7 8 7 8 9 9 7 5 3 3 3 2 2 2 2 2 3 2 1 0 0
0 0 0 0 0 0 0 0 0 0 0 0 0 0 0 0 0 1 1 1 3 3 3 4 6 7 6 5 6 7 7 8 9 8 7 5 4 3 3 2 2 3 3 2 2 2 1 0 0
0 0 0 0 0 0 0 0 0 0 0 0 0 0 0 0 1 2 3 4 4 4 3 4 6 7 6 5 6 7 7 8 8 7 6 5 4 3 2 1 1 3 3 2 1 1 0 0 0
0 0 0 0 0 0 0 0 0 0 0 0 0 0 0 0 1 3 5 7 6 4 3 4 5 5 4 4 5 6 6 6 6 5 5 5 4 3 1 0 1 2 2 1 0 0 0 0 0
0 0 0 0 0 0 0 0 0 0 0 0 0 0 0 0 2 4 6 7 5 4 3 3 4 4 3 3 3 4 4 3 3 3 3 3 3 2 1 0 0 1 1 0 0 0 0 0 0
0 0 0 0 0 0 0 0 0 0 0 0 0 0 0 1 3 5 6 5 4 3 3 3 3 3 3 3 3 3 2 1 1 1 1 1 1 0 0 0 0 0 0 0 0 0 0 0 0
0 0 0 0 0 0 0 0 0 0 0 0 0 0 0 1 2 3 4 3 2 3 3 3 3 3 3 3 3 3 1 0 0 0 0 0 0 0 0 0 0 0 0 0 0 0 0 0 0
0 0 0 0 0 0 0 0 0 0 0 0 0 0 0 0 1 1 1 1 2 3 3 3 3 3 3 3 3 2 1 0 0 0 0 0 0 0 0 0 0 0 0 0 0 0 0 0 0
0 0 0 0 0 0 0 0 0 0 0 0 0 0 0 0 0 0 0 1 2 3 3 3 3 3 3 3 3 1 0 0 0 0 0 0 0 0 0 0 0 0 0 0 0 0 0 0 0
0 0 0 0 0 0 0 0 0 0 0 0 0 0 0 0 0 0 0 1 2 3 3 3 3 3 3 3 2 1 0 0 0 0 0 0 0 0 0 0 0 0 0 0 0 0 0 0 0
0 0 0 0 0 0 0 0 0 0 0 0 0 0 0 0 0 0 0 1 2 3 3 3 3 3 3 2 1 0 0 0 0 0 0 0 0 0 0 0 0 0 0 0 0 0 0 0 0
0 0 0 0 0 0 0 0 0 0 0 0 0 0 0 0 0 0 0 0 1 3 3 3 3 3 3 1 0 0 0 0 0 0 0 0 0 0 0 0 0 0 0 0 0 0 0 0 0
0 0 0 0 0 0 0 0 0 0 0 0 0 0 0 0 0 0 0 0 1 2 3 3 3 3 2 1 0 0 0 0 0 0 0 0 0 0 0 0 0 0 0 0 0 0 0 0 0
0 0 0 0 0 0 0 0 0 0 0 0 0 0 0 0 0 0 0 0 0 1 3 3 3 2 1 0 0 0 0 0 0 0 0 0 0 0 0 0 0 0 0 0 0 0 0 0 0
0 0 0 0 0 0 0 0 0 0 0 0 0 0 0 0 0 0 0 0 0 1 2 3 2 1 0 0 0 0 0 0 0 0 0 0 0 0 0 0 0 0 0 0 0 0 0 0 0
0 0 0 0 0 0 0 0 0 0 0 0 0 0 0 0 0 0 0 0 0 1 2 2 1 0 0 0 0 0 0 0 0 0 0 0 0 0 0 0 0 0 0 0 0 0 0 0 0
0 0 0 0 0 0 0 0 0 0 0 0 0 0 0 0 0 0 0 0 0 0 1 1 1 0 0 0 0 0 0 0 0 0 0 0 0 0 0 0 0 0 0 0 0 0 0 0 0
0 0 0 0 0 0 0 0 0 0 0 0 0 0 0 0 0 0 0 0 0 0 0 0 0 0 0 0 0 0 0 0 0 0 0 0 0 0 0 0 0 0 0 0 0 0 0 0 0
0 0 0 0 0 0 0 0 0 0 0 0 0 0 0 0 0 0 0 0 0 0 0 0 0 0 0 0 0 0 0 0 0 0 0 0 0 0 0 0 0 0 0 0 0 0 0 0 0
0 0 0 0 0 0 0 0 0 0 0 0 0 0 0 0 0 0 0 0 0 0 0 0 0 0 0 0 0 0 0 0 0 0 0 0 0 0 0 0 0 0 0 0 0 0 0 0 0
0 0 0 0 0 0 0 0 0 0 0 0 0 0 0 0 0 0 0 0 0 0 0 0 0 0 0 0 0 0 0 0 0 0 0 0 0 0 0 0 0 0 0 0 0 0 0 0 0
0 0 0 0 0 0 0 0 0 0 0 0 0 0 0 0 0 0 0 0 0 0 0 0 0 0 0 0 0 0 0 0 0 0 0 0 0 0 0 0 0 0 0 0 0 0 0 0 0
0 0 0 0 0 0 0 0 0 0 0 0 0 0 0 0 0 0 0 0 0 0 0 0 0 0 0 0 0 0 0 0 0 0 0 0 0 0 0 0 0 0 0 0 0 0 0 0 0
0 0 0 0 0 0 0 0 0 0 0 0 0 0 0 0 0 0 0 0 0 0 0 0 0 0 0 0 0 0 0 0 0 0 0 0 0 0 0 0 0 0 0 0 0 0 0 0 0
0 0 0 0 0 0 0 0 0 0 0 0 0 0 0 0 0 0 0 0 0 0 0 0 0 0 0 0 0 0 0 0 0 0 0 0 0 0 0 0 0 0 0 0 0 0 0 0 0
0 0 0 0 0 0 0 0 0 0 0 0 0 0 0 0 0 0 0 0 0 0 0 0 0 0 0 0 0 0 0 0 0 0 0 0 0 0 0 0 0 0 0 0 0 0 0 0 0
0 0 0 0 0 0 0 0 0 0 0 0 0 0 0 0 0 0 0 0 0 0 0 0 0 0 0 0 0 0 0 0 0 0 0 0 0 0 0 0 0 0 0 0 0 0 0 0 0
Wind_Speed
6 3 2 4 6 4 2 3 2 1 1 1 1 3 4 4 3 3 1 2 3 3 3 4 7 9 9 9 9 9 10 10 10 11 11 11 11 12 12 12 12 13 14 14 14 15 15 15 15
2 2 5 5 4 2 4 3 3 3 2 1 2 2 3 1 1 1 1 0 3 4 3 3 7 9 9 9 9 9 10 10 10 11 11 11 11 11 12 12 12 13 13 14 14 14 15 15 15
1 4 4 4 3 6 4 2 4 1 0 1 2 2 1 0 0 1 1 1 3 3 2 3 8 9 9 9 9 9 10 10 10 10 11 11 11 11 12 12 12 12 13 13 14 14 15 15 15
3 4 5 3 4 5 3 1 2 1 1 2 2 1 1 1 0 1 1 3 4 3 2 3 7 9 9 9 9 9 9 10 10 10 10 11 11 12 11 12 12 12 12 13 14 14 14 14 14
4 4 3 1 4 3 2 1 1 1 0 0 2 1 1 2 3 2 4 4 4 3 2 2 6 8 9 9 8 8 9 9 10 10 11 11 11 12 11 11 11 11 12 12 13 14 14 14 14
4 4 3 4 4 2 1 1 1 1 1 0 2 1 1 2 3 2 3 4 4 3 2 2 6 7 8 9 8 8 8 9 10 10 10 11 11 11 11 10 11 11 11 12 13 13 14 14 14
4 4 4 4 3 2 2 0 2 2 1 2 2 2 1 2 2 2 3 4 4 3 3 2 3 4 6 7 8 7 7 8 9 10 10 10 10 10 10 10 10 11 11 11 12 12 13 13 13
4 4 2 2 3 4 1 0 0 1 2 0 2 3 2 2 0 2 4 4 4 4 3 3 3 3 3 3 6 7 7 8 8 9 9 10 9 9 9 9 9 9 10 11 12 12 12 12 12
3 4 4 5 5 3 1 1 1 1 2 1 1 1 1 1 3 4 3 3 3 3 3 3 3 3 2 3 5 6 6 7 8 8 10 9 5 5 6 7 9 9 10 11 12 12 12 11 11
3 3 6 3 3 3 1 1 1 1 1 1 1 2 2 4 4 4 3 3 2 1 1 2 3 3 2 2 3 3 3 4 4 4 5 4 4 4 6 8 9 9 10 10 11 11 10 8 5
2 4 2 1 1 1 1 1 0 3 2 3 3 1 2 3 3 3 3 2 2 1 1 2 2 2 3 2 2 2 2 3 4 5 4 4 4 4 4 3 4 5 6 5 7 6 4 4 4
2 1 1 1 1 0 1 1 0 2 4 2 2 3 4 4 4 3 3 2 1 1 1 1 2 2 2 2 2 2 2 2 3 3 4 4 3 3 3 3 3 3 2 3 4 3 4 5 5
2 1 1 1 1 1 0 1 1 3 3 1 2 3 4 5 3 2 1 1 1 1 1 1 1 1 2 2 2 2 2 3 3 3 3 4 4 3 3 2 3 3 2 3 4 4 4 4 4
1 1 1 1 1 1 1 3 1 5 1 1 2 2 3 3 3 2 1 1 1 1 1 0 1 1 2 2 2 2 2 3 3 3 3 4 3 4 3 3 3 2 2 2 3 4 4 3 3
1 1 3 2 1 1 1 4 4 4 2 1 1 1 1 2 2 3 3 3 3 2 2 1 1 2 2 2 2 2 2 2 3 2 3 3 3 4 3 3 2 2 2 3 3 4 3 3 3
2 1 2 3 1 1 2 8 4 2 4 3 1 1 1 3 3 3 3 2 2 2 2 2 1 2 2 1 2 2 2 2 2 2 3 3 3 4 4 3 2 2 2 2 3 3 4 3 3
2 1 4 4 1 1 3 7 3 1 3 3 3 2 2 3 3 3 3 3 2 3 3 3 2 2 2 1 2 2 2 2 2 2 3 3 3 4 3 3 3 3 2 2 3 2 3 4 3
4 3 3 5 2 1 4 7 5 1 3 5 4 3 3 4 5 4 3 3 2 3 3 3 2 2 2 2 2 2 2 2 1 1 2 3 3 3 3 3 3 3 3 2 2 3 3 3 3
4 3 4 4 2 2 6 9 8 4 3 5 5 4 4 5 4 2 2 2 1 1 2 3 3 3 2 2 2 2 2 2 1 1 2 2 3 3 4 3 3 3 3 3 4 4 4 3 2
3 4 4 4 1 2 5 9 7 5 5 5 6 5 5 4 3 2 2 1 2 2 3 3 3 3 3 3 2 2 2 1 1 1 1 2 2 3 3 4 3 3 3 4 4 4 3 2 2
4 5 5 4 3 2 3 7 5 4 3 3 4 4 4 5 5 4 3 3 2 2 3 4 4 3 4 3 2 2 2 1 1 1 1 1 2 2 3 4 4 3 4 4 4 4 5 4 2
6 4 4 3 1 3 0 6 6 4 4 5 5 4 5 5 4 4 3 3 3 3 3 4 4 3 3 4 4 4 3 2 2 2 2 1 2 2 2 3 4 4 3 4 4 3 3 5 4
4 0 2 2 3 3 2 4 8 2 5 6 5 5 5 5 4 4 4 4 3 2 2 3 3 4 4 4 5 5 3 2 1 2 2 2 1 2 2 3 3 3 3 4 5 4 3 3 4
3 3 3 2 2 5 6 5 9 5 7 4 4 4 4 4 4 4 2 2 1 1 1 1 3 3 4 4 5 6 5 4 4 3 3 3 2 2 2 2 3 3 3 4 4 5 5 4 4
3 4 2 3 2 7 3 5 11 6 5 5 5 5 4 3 3 2 2 2 2 1 1 2 2 3 3 4 5 5 5 6 6 5 4 3 2 2 3 3 3 3 3 3 3 4 5 5 5
4 5 6 5 5 5 2 8 9 5 4 3 4 3 2 2 2 3 3 3 3 2 2 2 3 3 3 4 4 4 4 4 4 4 4 4 4 3 3 4 3 3 4 4 4 4 4 4 4
5 4 3 4 1 4 7 8 9 3 3 2 2 2 3 3 3 3 2 2 2 3 3 4 3 3 3 4 3 3 4 4 4 4 3 3 3 3 3 3 4 4 4 4 4 3 4 4 4
3 6 4 4 3 6 7 6 7 5 4 3 3 4 3 2 3 3 2 2 2 3 3 3 3 3 3 3 3 3 4 4 3 3 4 4 3 3 4 4 4 4 4 4 4 4 4 4 4
4 4 4 4 4 5 6 9 6 7 6 5 5 4 4 3 3 3 3 2 2 2 2 2 2 2 2 3 3 3 3 3 3 3 4 4 4 4 5 5 5 5 5 5 5 4 4 5 5
5 6 7 6 6 5 4 10 3 4 4 4 5 4 4 3 3 3 2 2 2 2 2 2 2 3 3 3 3 4 3 3 4 4 4 4 5 5 5 5 5 6 6 5 6 6 5 6 6
Wind_Direction
350 15 55 56 60 58 219 235 217 208 221 246 159 131 142 147 162 188 323 107 106 140 160 156 139 133 127 119 115 111 108 104 100 96 94 92 94 93 91 90 89 88 88 88 89 90 91 92 91
345 32 53 62 100 181 249 228 210 219 184 114 58 80 97 131 39 54 10 34 119 135 143 142 136 135 129 121 117 113 109 106 102 98 95 93 93 96 95 92 90 90 89 89 90 91 91 90 90
23 52 82 85 140 194 211 210 208 241 107 102 75 48 101 168 290 207 267 140 114 117 115 138 135 135 131 124 118 113 109 106 103 99 95 94 92 93 96 94 91 89 90 91 92 92 91 91 90
68 50 59 94 207 219 199 199 173 146 20 56 112 76 0 11 313 202 112 121 116 109 96 130 136 133 128 124 120 117 112 107 104 100 97 95 94 91 95 95 92 91 92 93 93 94 93 93 93
61 79 81 200 236 246 234 236 185 138 147 75 131 144 299 2 24 75 108 112 122 116 90 115 129 133 130 125 120 118 115 111 108 103 99 97 95 92 91 97 97 95 95 96 95 96 96 95 96
66 76 127 221 238 259 268 246 165 174 181 88 129 153 233 30 34 63 105 103 102 108 84 92 122 125 129 127 123 121 117 114 111 107 102 100 96 95 91 94 100 101 100 100 100 98 97 98 97
111 116 182 209 228 251 249 153 155 173 187 217 170 142 277 352 5 83 94 90 84 84 77 71 104 116 124 126 123 120 117 114 111 105 101 97 95 95 95 89 97 101 103 102 102 99 99 98 98
122 113 148 206 211 239 249 72 70 153 205 170 132 151 226 271 339 101 93 86 82 73 65 61 75 89 101 120 121 114 112 111 108 104 98 92 91 91 90 85 85 98 103 103 102 101 101 98 95
92 100 203 212 199 225 206 103 356 26 109 68 65 142 281 113 119 108 92 84 87 67 48 51 64 66 84 104 117 114 113 110 106 102 95 89 82 82 80 78 75 87 98 101 100 100 97 92 88
100 172 219 213 189 191 194 173 185 101 45 4 355 10 51 102 115 127 129 144 150 134 52 49 66 66 70 94 109 113 105 104 94 94 94 89 84 79 78 76 74 79 90 95 96 92 89 81 75
133 190 211 262 235 170 174 205 158 145 234 230 222 223 131 121 126 141 156 164 185 165 81 47 66 80 81 82 99 107 103 102 100 100 98 99 90 84 71 72 68 66 78 82 86 80 74 77 77
127 256 223 271 308 99 180 159 145 191 231 263 223 166 157 155 166 175 185 178 155 113 94 56 54 79 92 90 100 114 118 116 113 115 113 110 102 90 83 77 70 65 71 89 86 87 82 79 77
169 247 270 269 297 259 303 244 220 254 277 352 92 120 161 171 178 178 163 174 146 139 91 68 77 93 104 106 107 113 125 127 127 124 121 118 119 114 100 88 77 73 73 93 98 97 93 86 80
189 188 281 300 280 282 236 275 244 262 268 105 112 142 182 181 178 173 149 214 195 186 190 144 121 112 115 112 118 126 131 135 132 131 127 122 127 125 118 105 90 80 73 92 103 106 103 93 88
107 44 323 300 276 274 153 282 241 244 165 152 155 154 199 216 192 207 214 220 209 202 196 180 166 130 139 133 127 131 141 142 141 137 134 128 126 127 125 121 113 110 95 99 107 102 98 92 84
59 75 278 284 228 265 162 254 263 225 167 193 215 195 220 249 235 237 232 231 225 198 192 189 173 149 143 142 137 139 135 136 143 138 137 129 125 130 129 128 127 125 115 115 124 119 112 100 93
29 232 245 282 216 187 194 250 273 218 178 213 230 230 229 267 268 265 254 238 229 204 192 190 172 167 162 152 139 134 136 134 139 139 141 137 133 136 136 135 136 131 121 114 131 122 125 123 110
217 227 241 249 264 200 230 256 275 250 207 230 238 240 238 251 259 268 262 239 224 210 190 184 177 174 163 149 126 118 111 110 114 120 138 143 143 145 140 137 141 138 132 121 131 129 110 123 121
178 198 246 256 261 228 240 258 270 255 232 239 238 241 251 253 264 265 259 243 207 208 191 191 188 185 161 160 167 169 175 162 139 114 101 130 139 145 142 145 152 150 149 151 144 136 125 113 119
197 227 256 282 288 233 265 268 262 242 226 224 222 229 244 263 284 286 273 256 218 220 213 198 199 195 186 181 177 175 170 167 162 144 115 125 143 155 150 150 162 162 151 146 148 142 142 141 142
225 214 234 260 326 314 309 288 252 252 231 240 231 228 236 236 248 260 260 244 236 233 232 211 207 203 194 175 143 116 107 107 135 161 169 159 159 154 157 160 157 169 166 168 168 167 157 161 171
238 232 223 240 263 282 253 282 271 246 264 252 248 239 243 246 244 246 253 256 251 243 245 216 200 199 192 174 167 161 174 189 199 189 189 172 166 165 156 162 164 171 175 173 175 170 171 162 170
218 145 178 205 202 280 244 244 277 270 259 257 248 241 246 245 240 241 240 243 248 249 242 223 194 197 189 184 182 180 188 193 165 159 175 175 172 175 166 164 163 174 179 184 182 170 170 177 174
159 83 74 63 101 259 227 210 272 227 226 245 247 250 251 252 248 248 249 253 267 263 258 255 198 204 193 189 188 189 192 181 170 180 191 195 186 187 175 171 179 185 184 187 195 187 180 189 182
105 98 23 341 305 251 213 216 252 238 224 222 239 252 254 248 241 252 264 254 267 275 271 269 226 214 204 195 198 199 198 189 190 193 195 194 193 203 206 193 194 195 196 191 193 192 190 193 194
185 159 169 213 240 280 265 237 254 243 240 235 241 249 253 260 259 256 251 243 244 249 251 249 245 227 209 204 206 202 199 197 199 200 199 201 203 207 203 204 206 203 199 196 192 197 197 193 203
164 196 176 148 241 271 263 277 296 252 261 253 249 258 258 257 264 266 265 258 247 240 242 242 241 241 219 215 209 204 203 203 207 205 205 208 210 204 200 203 209 211 203 200 195 202 202 198 206
168 155 128 157 215 261 280 265 250 247 254 264 258 255 261 273 273 270 264 261 254 249 255 257 242 240 228 214 211 215 209 209 209 206 208 211 211 205 200 210 217 217 211 205 201 207 207 201 209
151 166 166 164 184 197 265 266 225 209 219 235 250 258 257 255 252 252 257 262 264 276 257 255 255 254 246 223 220 217 211 207 205 213 214 214 212 206 205 208 214 217 213 205 206 213 208 210 214
186 184 167 185 223 204 233 267 269 220 239 248 264 274 275 264 256 250 252 263 266 266 265 257 257 252 250 233 221 224 217 205 207 219 220 217 216 212 213 210 214 220 217 208 207 213 213 214 217